Regional Weather Roundup
Issued by NWS San Diego, CA

Home | Current Version | Previous Version | Text Only | Print | Product List | Glossary On
Versions: 1 2 3 4 5 6 7 8 9 10 11 12 13 14 15 16 17 18 19 20 21 22 23 24 25 26 27
000
ASUS46 KSGX 152111
RWRSGX

SAN DIEGO HOURLY WEATHER ROUNDUP
NATIONAL WEATHER SERVICE SAN DIEGO CA
100 PM PST FRI DEC 15 2017

NOTE: "FAIR" INDICATES FEW OR NO CLOUDS BELOW 12,000 FEET WITH NO
SIGNIFICANT WEATHER AND/OR OBSTRUCTIONS TO VISIBILITY.

CAZ042-043-060-061-PZZ750-775-152200-

GREATER SAN DIEGO AREA

CITY           SKY/WX    TMP DP  RH WIND       PRES   REMARKS
SAN DIEGO AP   MOSUNNY   75  28  17 NW9       30.07F
NATIONAL CITY    N/A     77  35  21 N2        30.06F
CHULA VISTA      N/A     79  24  13 NW5       29.97F
IMPERIAL BEACH MOSUNNY   76  26  15 NW12      30.05F
BROWN FIELD    SUNNY     82  11   7 NW5       30.05F
MIRAMAR MCAS   SUNNY     80  20  10 W7        30.06F
MONTGOMERY FLD SUNNY     82  16   8 W7        30.06F
GILLESPIE FLD  SUNNY     81   7   6 CALM      30.06F

$$

NORTH SAN DIEGO COUNTY

CITY           SKY/WX    TMP DP  RH WIND       PRES   REMARKS
CAMP PENDLETON MOSUNNY   78  19  11 SW8       30.05F
OCEANSIDE AP   NOT AVBL
OCEANSIDE HBR    N/A     67  47  48 CALM      30.08F
VISTA            N/A     78  21  12 W5        30.04F
CARLSBAD       SUNNY     73  27  18 W8        30.06F
DEL MAR          N/A     72  44  36 CALM      30.08F
LA JOLLA SCRIP   N/A     70  29  22 NW5       30.06F
FALLBROOK        N/A     81  15   8 SW3       30.06F
ESCONDIDO        N/A     78  24  13 W7        30.06F
SAN MARCOS       N/A     79  26  14 NW3       30.08F
POWAY            N/A     80  26  14 SW6       30.07F

$$

EAST SAN DIEGO COUNTY

CITY           SKY/WX    TMP DP  RH WIND       PRES   REMARKS
RAMONA         SUNNY     80  10   7 NW8       30.07F
LA MESA          N/A     77  21  12 CALM      30.00F
JAMUL            N/A     78  18  10 CALM      30.06F
DESCANSO N       N/A     71  14  11 E3        30.00F
MT. LAGUNA OBS   N/A     54  -3   9 E6        30.10F
CAMPO            N/A     70   7   8 E22       30.07F

$$

ORANGE COUNTY AND THE LOS ANGELES BASIN

CITY           SKY/WX    TMP DP  RH WIND       PRES   REMARKS
JOHN WAYNE AP  MOSUNNY   77  39  25 S7        30.06F
LAGUNA BEACH     N/A     69  57  66 CALM      30.02F
LAKE FOREST FR   N/A     81  14   8 SW1       29.93F
HUNTINGTON BCH   N/A     74  42  31 SW3       30.07F
LOS ALAMITOS   MOSUNNY   78  39  24 S8        30.05F
FULLERTON      SUNNY     82  12   7 CALM      30.04F
LONG BEACH     SUNNY     80  34  19 S7        30.06F
L.A. AP        MOSUNNY   75  32  20 W9        30.06F
L.A. DOWNTOWN  SUNNY     79  14   8 CALM      30.05F

$$

THE INLAND EMPIRE

CITY           SKY/WX    TMP DP  RH WIND       PRES   REMARKS
CORONA         SUNNY     81  10   7 CALM      30.06F
CHINO          MOSUNNY   82  11   7 SE3       30.07F
ONTARIO        MOSUNNY   78   5   6 W5        30.08F
SAN BERNARDINO MOSUNNY  N/A N/A N/A SW3       30.08
RIVERSIDE AP   SUNNY     79  10   7 VRB3      30.07F
MORENO VALLEY    N/A     80  18  10 NE2       28.20F
MARCH ARB      SUNNY     78   2   5 N5        30.08F
HORSETHIEF CYN   N/A     81  -1   4 CALM      30.06F
PERRIS           N/A     77  15   9 NE3       30.03F
HEMET EAST       N/A     58  -1   9 CALM      30.17S
FRENCH VALLEY  FAIR      77   3   6 SW6       30.08F
TEMECULA         N/A     77  15   9 N1        30.09F

$$

SAN BERNARDINO AND RIVERSIDE COUNTY MOUNTAINS

CITY           SKY/WX    TMP DP  RH WIND       PRES   REMARKS
BIG BEAR AP    SUNNY     61  -8   6 W8        30.25F
ANGELUS OAKS     N/A     60  13  15 CALM      30.05F

$$

SOUTHERN DESERT INCLUDING THE COACHELLA VALLEY

CITY           SKY/WX    TMP DP  RH WIND       PRES   REMARKS
PALM SPRINGS   SUNNY     77  13   9 VRB5      30.10F
THOUSAND PALMS   N/A     76  20  12 NW1       30.07F
PALM DESERT      N/A     78  21  12 CALM      26.42
THERMAL        SUNNY     77  16  10 SE7       30.06F
BLYTHE         SUNNY     72  16  12 CALM      30.11F
IMPERIAL AP    SUNNY     75  15  10 CALM      30.09F
EL CENTRO NAS  MOSUNNY   76  11   8 CALM      30.11F
YUMA AZ        SUNNY     76  17  11 NE8       30.08F
MEXICALI       SUNNY     75  12   9 W6        30.11F

$$

UPPER DESERT

CITY           SKY/WX    TMP DP  RH WIND       PRES   REMARKS
HESPERIA         N/A     68  13  12 CALM      30.29F
APPLE VALLEY     N/A     67  13  12 W1        30.21F
PALMDALE       SUNNY     65  13  13 CALM      30.15F
LANCASTER      SUNNY     65  13  13 CALM      30.15F
EDWARDS AFB    MOSUNNY   60   9  13 CALM      30.13F
DAGGETT        SUNNY     65  15  14 CALM      30.13F
29 PALMS N     SUNNY     68   7   9 N3        30.19F
NEEDLES        SUNNY     70  14  11 NE6       30.13F

$$

REGIONAL REPORTS

CITY           SKY/WX    TMP DP  RH WIND       PRES   REMARKS
SANTA BARBARA  SUNNY     75  25  15 VRB3      30.06F
SANDBERG       SUNNY     74  -6   4 N5        30.22F
LAS VEGAS NV   MOSUNNY   59  17  19 VRB6      30.16F
PHOENIX AZ     SUNNY     71  18  13 CALM      30.10F
TIJUANA        SUNNY     81  21  11 CALM      30.08F
ENSENADA NW      N/A     77  32  19 CALM      29.95F

$$

OFFSHORE ISLANDS

CITY           SKY/WX    TMP DP  RH WIND       PRES   REMARKS
CATALINA ARPT  SUNNY     73   8   8 W9        30.12F
SAN CLEMENTE I MOSUNNY   72  46  39 S7        30.09F
SAN NICOLAS IS SUNNY     75   8   7 S7        30.08F

$$

MARINE AND OFFSHORE BUOY REPORTS

STATION/POSITION SKY/WX   TEMP    WIND        PRES    VSBY  SWELL
                          AIR SEA DIR/SP/G                  HT/PER/DIR
                          (F)     (DEG/KT/KT) (MB)    (MI)  (FT/S/D)
TANNER BANKS               62 63              1018.5F
S CLEMENTE BASIN           65 64  310/  6/  8 1018.4F         5/280/15
SAN NICOLAS IS.               63                N/A           7/290/13
SO. S. ROSA ISLA           61 61  320/  4/  6 1018.4F         8/300/14
W. S. BARBARA CH           60 60  270/  6/  8 1018.1
M. S. BARBARA CH           63 60  250/  2/  4 1019.3F         5/250/13
S. MONICA BASIN               61  280/  4/  6 1018.2F         3/260/15
S PEDRO CHANNEL               63                N/A           3/270/15
CMP PENDLETON NS              62                N/A           2/250/17
OCEANSIDE OFFSHR              63                N/A           2/260/18
TORREY PINES OTR              62                N/A           2/270/17
SAN DIEGO BAY                 64              1018.3F
POINT LOMA SOUTH              65                N/A           5/270/17

$$





USA.gov is the U.S. government's official web portal to all federal, state and local government web resources and services.